World > North America > United States > Wyoming > Moneta

Moneta, WY Hourly Weather Conditions

Feedback E-mail the Weather

Quick WX

Moneta, WY Weather Maps

°F °C°F °C
Moneta Weather Map
UTC Time: 12/7/2022, 00:14
Your Time:

Moneta, WY Regional Weather

Expires:202212070100;;422579
ASUS45 KCYS 070010
RWRWY 

WYOMING REGIONAL WEATHER ROUNDUP
NATIONAL WEATHER SERVICE CHEYENNE WY
500 PM MST TUE DEC 06 2022

NOTE:  "FAIR" INDICATES FEW OR NO CLOUDS BELOW 12,000 FEET
WITH NO SIGNIFICANT WEATHER AND/OR OBSTRUCTIONS TO VISIBILITY.


WYZ014>020-022>026-101>103-070100-
CENTRAL WYOMING
  
CITY           SKY/WX    TMP DP  RH WIND       PRES   REMARKS
BIG PINEY      FAIR      20  10  65 NW7       30.00R WCI  11          
6HR MIN TEMP:  18; 6HR MAX TEMP:  31;                                

PINEDALE       MOCLDY    21  14  73 CALM      30.00R                  
DUBOIS         FAIR      21  12  68 NW12G23   29.89R WCI   9          
LANDER         FAIR      30  13  49 CALM      29.87R                  
6HR MIN TEMP:  29; 6HR MAX TEMP:  37;                                

RIVERTON       FAIR      29  13  51 W10       29.87R WCI  20          
6HR MIN TEMP:  28; 6HR MAX TEMP:  35;                                

CASPER         FAIR      31  15  52 SW15      29.87R WCI  20          
6HR MIN TEMP:  31; 6HR MAX TEMP:  38;                                

DOUGLAS        FAIR      34  15  46 W17G26    29.86R WCI  23          
6HR MIN TEMP:  34; 6HR MAX TEMP:  41;                                


$$

SKY/WX - Weather  TMP - Temperature  DP - Dew Point  RH - Humidity
WIND - Wind Direction/Speed PRES - Barometric Pressure VSB - Visibility
WCI - Wind Chill Index E13G22 Wind - East Wind 13 mph/Gusts of 22 mph

Trending Headlines

Trending Entertainment Headlines

Moneta Radar Loop

Use the map search tool if you want to place a location marker on the radar map...

Moneta Quick Facts

National Two Day Weather Forecast


E-mail the Moneta Weather Forecast

Voice your opinion or tell us about page issues...